GSAT0209 (GALILEO 12)

Last updated on Tue Jul 15 2025 00:02:33 GMT+0000 (Coordinated Universal Time)

1 41174U 15079A 25195.16646005 .00000003 00000+0 00000+0 0 9990 2 41174 55.6221 110.5440 0004620 338.7508 21.2498 1.70473735 59019
UTC large
Height (km)
Speed (km/s)
/
Latitude / Longitude
Inclination (degrees)
Orbital Period (minutes)
Azimuth
Elevation
Range (km)
Doppler Factor

Next 0 passes for location: London (51.5072 / 0.1276)

Sorry there are no passes over London.